Weather History for Bloomington, IL

Change the Weather History Date:

Monday, April 1, 2013

  Actual Average Record
Temperature  
Mean Temperature 35 °F -  
Max Temperature 43 °F 0 °F 82 °F (2012)
Min Temperature 29 °F - 26 °F (2002)
Degree Days  
Heating Degree Days 30    
Moisture  
Dew Point 19 °F    
Average Humidity 53    
Maximum Humidity 75    
Minimum Humidity 34    
Precipitation  
Precipitation 0.00 in - - ()
Sea Level Pressure  
Sea Level Pressure 30.16 in    
Wind  
Wind Speed 15 mph (NW)    
Max Wind Speed 18 mph    
Max Gust Speed 23 mph    
Visibility 10 miles    
Events      
Averages and records for this station are not official NWS values.
T = Trace of Precipitation, MM = Missing Value Source: NWS Daily Summary

Daily Weather History Graph

Daily Weather History Graph

Search for Another Location

Airport:

Trip Planner

Search our weather history database for the weather conditions in past years. The results will help you decide how hot, cold, wet, or windy it might be!

Date:

Astronomy

Apr. 01, 2013 Rise Set
Actual Time 6:38 AM CDT 7:20 PM CDT
Civil Twilight 6:11 AM CDT 7:48 PM CDT
Nautical Twilight 5:38 AM CDT 8:20 PM CDT
Astronomical Twilight 5:05 AM CDT 8:54 PM CDT
Moon 12:29 AM CDT (4/1) 10:24 AM CDT (4/1)
Length of Visible Light 13h 36m
Length of Day
12h 41m
Waning Gibbous, 67% of the Moon is Illuminated
Apr 1
Waning Gibbous
Apr 2
Last Quarter
Apr 10
New
Apr 18
First Quarter
Apr 25
Full

Hourly Weather History & Observations

Time (CDT) Temp. Windchill Dew Point Humidity Pressure Visibility Wind Dir Wind Speed Gust Speed Precip Events Conditions
1:56 AM 36.9 °F 27.5 °F 25.2 °F 63% 29.99 in 10.0 mi NW 16.1 mph - N/A   Mostly Cloudy
2:56 AM 34.9 °F 24.6 °F 24.1 °F 65% 30.02 in 10.0 mi NW 17.3 mph - N/A   Partly Cloudy
3:56 AM 34.0 °F 23.4 °F 23.0 °F 64% 30.03 in 10.0 mi NNW 17.3 mph - N/A   Partly Cloudy
4:56 AM 32.9 °F 23.2 °F 23.0 °F 67% 30.06 in 10.0 mi NW 13.8 mph - N/A   Overcast
5:56 AM 30.0 °F 20.0 °F 22.1 °F 72% 30.08 in 10.0 mi NW 12.7 mph - N/A   Clear
6:56 AM 29.1 °F 19.4 °F 22.1 °F 75% 30.12 in 10.0 mi NW 11.5 mph - N/A   Clear
8:56 AM 32.9 °F 22.0 °F 21.0 °F 62% 30.17 in 10.0 mi NNW 17.3 mph - N/A   Clear
9:56 AM 36.0 °F 27.1 °F 20.1 °F 53% 30.19 in 10.0 mi NNW 13.8 mph - N/A   Partly Cloudy
10:56 AM 36.9 °F 28.7 °F 18.1 °F 47% 30.19 in 10.0 mi NW 12.7 mph - N/A   Clear
11:56 AM 37.9 °F 28.5 °F 17.1 °F 43% 30.20 in 10.0 mi NW 17.3 mph - N/A   Partly Cloudy
1:56 PM 41.9 °F 34.3 °F 16.2 °F 35% 30.19 in 10.0 mi NW 15.0 mph 21.9 mph N/A   Partly Cloudy
2:56 PM 41.9 °F 34.6 °F 16.2 °F 35% 30.18 in 10.0 mi NW 13.8 mph 23.0 mph N/A   Partly Cloudy
4:56 PM 41.9 °F 33.4 °F 15.1 °F 34% 30.19 in 10.0 mi NW 18.4 mph 23.0 mph N/A   Partly Cloudy
6:56 PM 37.9 °F 28.9 °F 14.0 °F 38% 30.21 in 10.0 mi NW 16.1 mph - N/A   Clear
7:56 PM 36.0 °F 29.0 °F 16.2 °F 45% 30.22 in 10.0 mi NW 9.2 mph - N/A   Clear
8:56 PM 34.0 °F 26.6 °F 16.2 °F 48% 30.24 in 10.0 mi NW 9.2 mph - N/A   Clear
9:56 PM 32.0 °F 24.2 °F 17.1 °F 54% 30.25 in 10.0 mi NW 9.2 mph - N/A   Clear
10:56 PM 31.1 °F 22.4 °F 17.1 °F 56% 30.25 in 10.0 mi NW 10.4 mph - N/A   Clear
11:56 PM 30.0 °F 22.4 °F 17.1 °F 59% 30.27 in 10.0 mi NW 8.1 mph - N/A   Clear